When you browse on this site, cookies collect data to enhance your experience and personalize the content and advertising you see.
Visit our Privacy Policy to learn more. By continuing to use the site, you agree to this use of cookies and data.
  • In United Kingdom
  • List of Countries
  • For 7 days
  • Water Temperature
  • Satellite Maps
  • Weather Map
  • Weather Widgets
  • user-avatar
    Login

    Hourly Weather Chachapoyas

    Today, 20 July, Saturday

    Time Temperature Precipitation Wind Pressure Humidity
    00:00 +11°C° 0 mm 1 mps 572 mmHg 96%
    01:00 +11°C° 0 mm 1 mps 572 mmHg 96%
    02:00 +10°C° 0 mm 1 mps 572 mmHg 95%
    03:00 +10°C° 0 mm 1 mps 572 mmHg 94%
    04:00 +10°C° 0 mm 1 mps 571 mmHg 94%
    05:00 +10°C° 0 mm 1 mps 572 mmHg 93%
    06:00 +10°C° 0 mm 1 mps 572 mmHg 92%
    07:00 +10°C° 0 mm 1 mps 572 mmHg 91%
    08:00 +12°C° 0 mm 1 mps 573 mmHg 81%
    09:00 +15°C° 0 mm 1 mps 575 mmHg 72%
    10:00 +18°C° 0 mm 1 mps 576 mmHg 62%
    11:00 +19°C° 0 mm 1 mps 576 mmHg 60%
    12:00 +19°C° 0 mm 1 mps 575 mmHg 57%
    13:00 +20°C° 0 mm 1 mps 575 mmHg 55%
    14:00 +20°C° 0 mm 1 mps 575 mmHg 57%
    15:00 +20°C° 0 mm 1 mps 574 mmHg 59%
    16:00 +20°C° 0 mm 1 mps 573 mmHg 61%
    17:00 +18°C° 0.1 mm 1 mps 573 mmHg 71%
    18:00 +15°C° 0.1 mm 1 mps 572 mmHg 82%
    19:00 +13°C° 0.1 mm 1 mps 572 mmHg 92%
    20:00 +13°C° 0.1 mm 1 mps 572 mmHg 94%
    21:00 +12°C° 0.1 mm 1 mps 572 mmHg 95%
    22:00 +12°C° 0.1 mm 1 mps 572 mmHg 97%
    23:00 +12°C° 0 mm 1 mps 572 mmHg 97%

    Tomorrow, 21 July, Sunday

    Time Temperature Precipitation Wind Pressure Humidity
    00:00 +12°C° 0 mm 1 mps 572 mmHg 97%
    01:00 +12°C° 0 mm 1 mps 572 mmHg 97%
    02:00 +12°C° 0 mm 1 mps 572 mmHg 96%
    03:00 +11°C° 0 mm 1 mps 572 mmHg 96%
    04:00 +11°C° 0 mm 1 mps 571 mmHg 95%
    05:00 +11°C° 0 mm 1 mps 571 mmHg 94%
    06:00 +11°C° 0 mm 1 mps 572 mmHg 93%
    07:00 +11°C° 0 mm 1 mps 572 mmHg 93%
    08:00 +13°C° 0 mm 1 mps 573 mmHg 84%
    09:00 +16°C° 0 mm 1 mps 575 mmHg 75%
    10:00 +19°C° 0 mm 1 mps 576 mmHg 66%
    11:00 +20°C° 0.1 mm 1 mps 576 mmHg 64%
    12:00 +20°C° 0.1 mm 1 mps 576 mmHg 62%
    13:00 +21°C° 0.1 mm 1 mps 575 mmHg 60%
    14:00 +20°C° 0.4 mm 1 mps 575 mmHg 64%
    15:00 +20°C° 0.4 mm 1 mps 574 mmHg 68%
    16:00 +19°C° 0.4 mm 1 mps 573 mmHg 73%
    17:00 +18°C° 0.4 mm 1 mps 572 mmHg 81%
    18:00 +15°C° 0.4 mm 1 mps 572 mmHg 89%
    19:00 +13°C° 0.4 mm 1 mps 571 mmHg 97%
    20:00 +13°C° 0 mm 1 mps 572 mmHg 97%
    21:00 +12°C° 0 mm 1 mps 572 mmHg 97%
    22:00 +12°C° 0 mm 1 mps 572 mmHg 97%
    23:00 +12°C° 0 mm 1 mps 572 mmHg 97%

    Day after tomorrow, 22 July, Monday

    Time Temperature Precipitation Wind Pressure Humidity
    00:00 +12°C° 0 mm 1 mps 572 mmHg 96%
    01:00 +11°C° 0 mm 1 mps 572 mmHg 96%
    02:00 +11°C° 0 mm 1 mps 572 mmHg 96%
    03:00 +11°C° 0 mm 1 mps 571 mmHg 95%
    04:00 +10°C° 0 mm 0 mps 571 mmHg 95%
    05:00 +11°C° 0 mm 1 mps 571 mmHg 95%
    06:00 +11°C° 0 mm 1 mps 572 mmHg 94%
    07:00 +11°C° 0 mm 1 mps 572 mmHg 94%
    08:00 +14°C° 0.1 mm 1 mps 573 mmHg 85%
    09:00 +16°C° 0.1 mm 1 mps 575 mmHg 76%
    10:00 +20°C° 0.1 mm 1 mps 576 mmHg 68%
    11:00 +20°C° 0.9 mm 1 mps 576 mmHg 71%
    12:00 +20°C° 0.9 mm 1 mps 575 mmHg 73%
    13:00 +20°C° 0.9 mm 1 mps 575 mmHg 76%
    14:00 +20°C° 1.3 mm 1 mps 574 mmHg 79%
    15:00 +19°C° 1.3 mm 1 mps 573 mmHg 82%
    16:00 +19°C° 1.3 mm 1 mps 573 mmHg 84%
    17:00 +16°C° 0.9 mm 1 mps 572 mmHg 88%
    18:00 +15°C° 0.9 mm 1 mps 572 mmHg 93%
    19:00 +13°C° 0.9 mm 1 mps 572 mmHg 97%
    20:00 +13°C° 0.2 mm 1 mps 572 mmHg 97%
    21:00 +12°C° 0.2 mm 1 mps 572 mmHg 97%
    22:00 +12°C° 0.2 mm 1 mps 573 mmHg 97%
    23:00 +12°C° 0 mm 1 mps 572 mmHg 97%

    23 July, Tuesday

    Time Temperature Precipitation Wind Pressure Humidity
    00:00 +11°C° 0 mm 0 mps 572 mmHg 96%
    01:00 +11°C° 0 mm 0 mps 572 mmHg 96%
    02:00 +10°C° 0 mm 0 mps 572 mmHg 96%
    03:00 +10°C° 0 mm 0 mps 571 mmHg 96%
    04:00 +10°C° 0 mm 0 mps 571 mmHg 96%
    05:00 +10°C° 0 mm 0 mps 571 mmHg 95%
    06:00 +10°C° 0 mm 0 mps 572 mmHg 95%
    07:00 +12°C° 0 mm 1 mps 572 mmHg 95%
    08:00 +14°C° 0 mm 1 mps 574 mmHg 86%
    09:00 +16°C° 0 mm 1 mps 575 mmHg 78%
    10:00 +20°C° 0 mm 1 mps 576 mmHg 70%
    11:00 +20°C° 0.6 mm 1 mps 576 mmHg 71%
    12:00 +20°C° 0.6 mm 1 mps 575 mmHg 71%
    13:00 +21°C° 0.6 mm 1 mps 575 mmHg 71%
    14:00 +20°C° 1.1 mm 1 mps 574 mmHg 76%
    15:00 +19°C° 1.1 mm 1 mps 573 mmHg 80%
    16:00 +19°C° 1.1 mm 1 mps 573 mmHg 84%
    17:00 +16°C° 0.6 mm 1 mps 572 mmHg 88%
    18:00 +15°C° 0.6 mm 1 mps 572 mmHg 92%
    19:00 +13°C° 0.6 mm 1 mps 572 mmHg 97%
    20:00 +13°C° 0.1 mm 1 mps 572 mmHg 97%
    21:00 +13°C° 0.1 mm 1 mps 572 mmHg 97%
    22:00 +12°C° 0.1 mm 1 mps 573 mmHg 97%
    23:00 +12°C° 0 mm 1 mps 573 mmHg 96%

    24 July, Wednesday

    Time Temperature Precipitation Wind Pressure Humidity
    00:00 +12°C° 0 mm 1 mps 573 mmHg 96%
    01:00 +12°C° 0 mm 1 mps 572 mmHg 96%
    02:00 +12°C° 0 mm 1 mps 572 mmHg 96%
    03:00 +11°C° 0 mm 0 mps 572 mmHg 96%
    04:00 +11°C° 0 mm 0 mps 572 mmHg 96%
    05:00 +11°C° 0.1 mm 0 mps 572 mmHg 96%
    06:00 +11°C° 0.1 mm 0 mps 572 mmHg 96%
    07:00 +12°C° 0.1 mm 0 mps 573 mmHg 96%
    08:00 +12°C° 0.2 mm 0 mps 573 mmHg 94%
    09:00 +13°C° 0.2 mm 0 mps 574 mmHg 92%
    10:00 +14°C° 0.2 mm 0 mps 575 mmHg 90%
    11:00 +15°C° 0.5 mm 0 mps 574 mmHg 87%
    12:00 +18°C° 0.5 mm 1 mps 574 mmHg 84%
    13:00 +19°C° 0.5 mm 1 mps 574 mmHg 80%
    14:00 +19°C° 1.1 mm 1 mps 574 mmHg 81%
    15:00 +19°C° 1.1 mm 1 mps 573 mmHg 82%
    16:00 +19°C° 1.1 mm 1 mps 573 mmHg 83%
    17:00 +16°C° 0.9 mm 1 mps 572 mmHg 88%
    18:00 +15°C° 0.9 mm 1 mps 572 mmHg 92%
    19:00 +13°C° 0.9 mm 1 mps 572 mmHg 97%
    20:00 +13°C° 0.2 mm 1 mps 572 mmHg 97%
    21:00 +12°C° 0.2 mm 1 mps 572 mmHg 97%
    22:00 +12°C° 0.2 mm 1 mps 572 mmHg 96%
    23:00 +12°C° 0.1 mm 1 mps 572 mmHg 96%

    25 July, Thursday

    Time Temperature Precipitation Wind Pressure Humidity
    00:00 +12°C° 0.1 mm 1 mps 572 mmHg 96%
    01:00 +12°C° 0.1 mm 1 mps 572 mmHg 96%
    02:00 +11°C° 0 mm 1 mps 571 mmHg 95%
    03:00 +11°C° 0 mm 1 mps 571 mmHg 95%
    04:00 +11°C° 0 mm 1 mps 571 mmHg 95%
    05:00 +10°C° 0 mm 1 mps 571 mmHg 94%
    06:00 +10°C° 0 mm 1 mps 571 mmHg 94%
    07:00 +10°C° 0 mm 1 mps 572 mmHg 93%
    08:00 +13°C° 0 mm 1 mps 573 mmHg 81%
    09:00 +16°C° 0 mm 1 mps 575 mmHg 69%
    10:00 +20°C° 0 mm 1 mps 577 mmHg 57%
    11:00 +21°C° 0 mm 1 mps 576 mmHg 55%
    12:00 +21°C° 0 mm 1 mps 576 mmHg 52%
    13:00 +22°C° 0 mm 1 mps 575 mmHg 50%
    14:00 +21°C° 0.2 mm 1 mps 574 mmHg 57%
    15:00 +20°C° 0.2 mm 1 mps 573 mmHg 65%
    16:00 +19°C° 0.2 mm 1 mps 573 mmHg 72%
    17:00 +16°C° 0.4 mm 1 mps 572 mmHg 80%
    18:00 +15°C° 0.4 mm 1 mps 572 mmHg 88%
    19:00 +13°C° 0.4 mm 1 mps 572 mmHg 96%
    20:00 +13°C° 0.2 mm 1 mps 572 mmHg 96%
    21:00 +13°C° 0.2 mm 1 mps 573 mmHg 96%
    22:00 +12°C° 0.2 mm 1 mps 573 mmHg 97%
    23:00 +13°C° 0.1 mm 1 mps 573 mmHg 96%
    Show more